Regional Weather Roundup
Issued by NWS

Home | Current Version | Previous Version | Text Only | Print | Product List | Glossary Off
Versions: 1 2 3 4 5 6 7 8 9 10 11 12 13 14 15 16 17 18 19 20 21 22 23 24 25 26 27 28 29 30 31 32 33 34 35 36 37 38 39 40 41 42 43 44 45 46 47 48 49 50

000
ASUS43 KMKX 191500
RWRWI

WISCONSIN REGIONAL WEATHER ROUNDUP
NATIONAL WEATHER SERVICE MILWAUKEE/SULLIVAN WI
1000 AM CDT SUN APR 19 2015

NOTE: "FAIR" INDICATES FEW OR NO CLOUDS BELOW 12,000 FEET WITH NO
SIGNIFICANT WEATHER AND/OR OBSTRUCTIONS TO VISIBILITY.

WIZ001-002-006>008-014>016-023>028-191600-
NORTHWEST WISCONSIN

CITY           SKY/WX    TMP DP  RH WIND       PRES   REMARKS
SUPERIOR ARPT  RAIN      37  37  99 NE10      29.74F WCI  30
ASHLAND        CLOUDY    46  42  86 E3        29.75F
HAYWARD        LGT RAIN  48  36  63 S9G16     29.72F
SIREN          DRIZZLE   45  40  83 SE7       29.71F
CUMBERLAND     CLOUDY    45  36  70 SE8       29.72F
RICE LAKE      LGT RAIN  47  35  63 SE10G17   29.74F
CHETEK         CLOUDY    48  35  60 E9        29.74F
LADYSMITH      CLOUDY    51  32  49 SE12      29.77F
EAU CLAIRE     NOT AVBL
MENOMONIE      CLOUDY    50  39  66 E5        29.73F
NEW RICHMOND   CLOUDY    49  39  68 SE10      29.70F
OSCEOLA        CLOUDY    47  42  80 SE7       29.73F
$$

WIZ003>005-009-010-017-018-191600-
NORTH CENTRAL WISCONSIN

CITY           SKY/WX    TMP DP  RH WIND       PRES   REMARKS
MANITOWISH WTR CLOUDY    46  31  57 SE14G20   29.79F
ARBOR VITAE    CLOUDY    47  31  54 S17G24    29.80F
WOODRUFF       CLOUDY    47  31  54 S17G24    29.80F
RHINELANDER    CLOUDY    50  28  42 SE13G23   29.82F
EAGLE RIVER    CLOUDY    46  28  49 SE14G22   29.82F
LAND O LAKES   CLOUDY    44  30  59 SE13      29.83F
PHILLIPS       CLOUDY    48  31  52 SE12G20   29.77F
TOMAHAWK       PTSUNNY   52  30  43 SE7       29.82F
MEDFORD        CLOUDY    48  32  54 SE12      29.78F
MERRILL        PTSUNNY   51  30  45 SE14      29.82F
$$

WIZ029-030-035-036-043>047-191600-
CENTRAL WISCONSIN

CITY           SKY/WX    TMP DP  RH WIND       PRES   REMARKS
WAUSAU         MOSUNNY   53  31  42 SE14      29.79F
MOSINEE        MOSUNNY   54  32  43 SE13G18   29.82F
MARSHFIELD     CLOUDY    53  31  42 SE14      29.79F
STEVENS POINT  PTSUNNY   51  31  46 SE10G16   29.83F
WAUPACA        MOSUNNY   56  31  38 E13       29.85F
WAUTOMA        NOT AVBL
WISC RAPIDS    CLOUDY    55  30  38 SE7       29.81F
CAMP DOUGLAS   NOT AVBL
$$

WIZ011>013-019>022-031-037>040-048>050-191600-
NORTHEAST WISCONSIN

CITY           SKY/WX    TMP DP  RH WIND       PRES   REMARKS
ANTIGO         CLOUDY    47  31  52 SE16G23   29.85F
SHAWANO        PTSUNNY   52  32  46 SE10      29.89F
OCONTO         PTSUNNY   45  36  70 E7        29.91F
STURGEON BAY   PTSUNNY   46  28  49 SE8G20    29.94S
GREEN BAY      PTSUNNY   52  32  46 SE14      29.88F
MANITOWOC      NOT AVBL
APPLETON       PTSUNNY   52  30  43 SE12      29.86F
CLINTONVILLE   PTSUNNY   52  30  43 SE13G20   29.87F
OSHKOSH        MOSUNNY   55  32  41 SE15      29.83F
$$

WIZ032>034-041-042-053>061-191600-
SOUTHWEST WISCONSIN

CITY           SKY/WX    TMP DP  RH WIND       PRES   REMARKS
LA CROSSE      CLOUDY    58  38  47 SE8       29.74F
SPARTA         DRIZZLE   54  34  48 E3        29.78F
VIROQUA        CLOUDY    53  34  47 SE9       29.77S
BOSCOBEL       CLOUDY    59  35  40 CALM      29.76F
PRAIRIE DU CHI CLOUDY    55  36  49 E8        29.75F
PLATTEVILLE    MOSUNNY   57  38  48 E5        29.77F
$$

WIZ056-057-062-063-064-067-068-191600-
SOUTH CENTRAL WISCONSIN

CITY           SKY/WX    TMP DP  RH WIND       PRES   REMARKS
REEDSBURG      CLOUDY    56  34  44 SE6       29.78F
BARABOO/DELLS  PTSUNNY   59  32  36 E6        29.78F
LONE ROCK      NOT AVBL
MINERAL POINT  CLOUDY    59  34  38 SE12      29.76F
MADISON        CLOUDY    61  35  37 SE13      29.78F
MIDDLETON      MOSUNNY   59  33  36 SE9       29.79F
WATERTOWN      SUNNY     57  34  41 SE10G20   29.81F
MONROE         MOSUNNY   61  39  44 SE8       29.77F
JANESVILLE     SUNNY     64  34  32 SE13      29.77F
$$

WIZ051-052-058>065-066-070>072-191600-
SOUTHEAST WISCONSIN

CITY           SKY/WX    TMP DP  RH WIND       PRES   REMARKS
MILWAUKEE      PTSUNNY   50  33  52 E9        29.85F
WAUKESHA       PTSUNNY   54  34  47 E12G23    29.85F
MILWAUKEE/TIMM NOT AVBL
RACINE         MOSUNNY   51  32  48 E9        29.86F
BURLINGTON     MOSUNNY   56  31  39 SE12G18   29.82F
KENOSHA        MOSUNNY   55  33  43 E13       29.83F
FOND DU LAC    MOSUNNY   56  32  40 SE18G24   29.83F
SHEBOYGAN      PTSUNNY   52  31  44 SE13      29.89F
WEST BEND      MOSUNNY   50  30  46 E13       29.86F
JUNEAU         MOSUNNY   56  33  41 E22       29.83F
$$

LSZ147-162-191600-
LAKE SUPERIOR

STATION/POSITION TIME  TEMP    WIND        PRES    WAVE
                       AIR SEA DIR/SP/G            HT/PER
                 (UTC) (F)     (DEG/KT/KT) (MB)    (FT/S)
DEVILS ISLAND    1400   38      80/ 14/ 15 1009.8F
PORT WING        1400   38      40/ 12/ 15 1008.1
SAXON HARBOR     1420   48     140/  1/ 10 1007.1F
$$

LMZ867-665-643>646-191600-
LAKE MICHIGAN

STATION/POSITION TIME  TEMP    WIND        PRES    WAVE
                       AIR SEA DIR/SP/G            HT/PER
                 (UTC) (F)     (DEG/KT/KT) (MB)    (FT/S)
CHAMBERS ISLAND  1400   45      60/  8/ 11 1014.2F
NORTHPORT PIER   1400   39      80/ 10/ 13 1014.9F
SISTER BAY       1302   49     100/ 13/ 18   N/A
KEWAUNEE LAKESHO 1400   42      50/  3/  6 1012.6F
SHEBOYGAN LAKESH 1400   45     170/  7/  8 1013.5F
PORT WASHINGTON  1440   46      80/  4/  5 1012.9F
MILWAUKEE LAKESH 1400   43      40/  8/  9   N/A
KENOSHA   LAKESH 1400   44      30/  6/  7 1011.2F
$$

TC  - TEMPERATURE IN CELSIUS
VSB - VISIBILITY IN STATUTE MILES
WCI - WIND CHILL INDEX
HX  - HEAT INDEX



USA.gov is the U.S. government's official web portal to all federal, state and local government web resources and services.